Overview Statistics Trail Chart Weather Telemetry Raw packets
 

This is the latest recevied weather packets stored in our database for station/object GBTWP-2. If no packets are shown the sender has not sent any weather packets the latest 10 day(s).

<< 21 22 23 24 25 26 27 >>
Time Temp. Humidity Pressure Rain* Wind** Luminosity Snow
1788532320 20° C 99% 1019.1 hPa 0 mm - 65 W/m² -
1788532020 20° C 99% 1019.1 hPa 0 mm - 65 W/m² -
1788531720 20° C 99% 1018.5 hPa 0 mm - 54 W/m² -
1788531418 20° C 99% 1018.5 hPa 1.27 mm - 45 W/m² -
1788531126 20° C 99% 1018.2 hPa 1.27 mm - 39 W/m² -
1788530827 20° C 99% 1018.5 hPa 0 mm - 32 W/m² -
1788530518 19.44° C 99% 1018.7 hPa 1.78 mm - 23 W/m² -
1788530217 19.44° C 99% 1019 hPa 1.78 mm - 16 W/m² -
1788529919 19.44° C 99% 1018.9 hPa 1.78 mm - 12 W/m² -
1788529619 19.44° C 99% 1019 hPa 1.78 mm - 10 W/m² -
1788529320 19.44° C 99% 1019.2 hPa 1.27 mm - 8 W/m² -
1788529020 19.44° C 99% 1019.4 hPa 1.27 mm - 8 W/m² -
1788528720 19.44° C 99% 1019.1 hPa 0 mm - 9 W/m² -
1788528420 19.44° C 99% 1019.3 hPa 0 mm - 9 W/m² -
1788528119 19.44° C 99% 1019.5 hPa 0 mm - 9 W/m² -
1788527818 19.44° C 99% 1019.4 hPa 0 mm - 11 W/m² -
1788527518 19.44° C 99% 1019.6 hPa 0 mm - 11 W/m² -
1788527220 19.44° C 99% 1019.6 hPa 0 mm - 7 W/m² -
1788526917 19.44° C 99% 1019.6 hPa 0 mm - 10 W/m² -
1788526620 19.44° C 99% 1019.3 hPa 1.78 mm - 6 W/m² -
1788526319 19.44° C 99% 1019.1 hPa 3.05 mm - 11 W/m² -
1788526020 19.44° C 99% 1019.3 hPa 1.27 mm - 11 W/m² -
1788525719 19.44° C 99% 1019.6 hPa 1.27 mm - 5 W/m² -
1788525420 19.44° C 99% 1019.5 hPa 1.78 mm - 5 W/m² -
1788525119 19.44° C 99% 1019.3 hPa 1.78 mm - 7 W/m² -

* Rain latest hour (hover to see other rain measurements)
** Current wind speed in m/s (hover to see current wind gust speed)